Location: Cardiff
(53.7833°N, 113.6000°W)
Time: 07:16:21
(UTC+00:00)

NOAA 15 - Pass Details

Date: 09 December 2023
Orbit: 797 x 810 km, 98.6° (Epoch: 04 March)

Event Time Altitude Azimuth Distance (km) Brightness Sun altitude
Rises 14:44:25 0° 20° (NNE) 3,324 7.7 -7.6°
Reaches altitude 10° 14:46:58 10° 29° (NNE) 2,387 7.1 -7.2°
Maximum altitude 14:51:48 36° 96° (E) 1,257 6.4 -6.6°
Drops below altitude 10° 14:56:35 10° 162° (SSE) 2,366 7.9 -6.0°
Sets 14:59:05 0° 171° (S) 3,291 8.4 -5.7°
